星链-32689 (STARLINK-32689)

导读

STARLINK-32689是美国SpaceX星链星座中的一颗卫星,于2024年12月29日发射升空,隶属于SpaceX打造的星链互联网卫星星座项目。该卫星承担着为全球范围内提供低延迟、高速率宽带互联网服务的任务,进一步扩充了星链星座的在轨规模,推动全球卫星互联网覆盖能力的提升。

Basic Information
目录编号:
62440
目录名称:
STARLINK-32689
国际标识:
2024-251J
轨道中心:
EARTH
卫星名称:
星链-32689
卫星全名:
星链-32689 (STARLINK-32689)
卫星状态:
在轨 (已飞行615 天)
发射日期:
2024-12-29 UTC
国别 :
美国 (US)
星等 :
--
Orbit Information
数据来源 国际轨道数据
星历时间: 2026-09-05T05:56:07+0800
10小时前
查看轨道信息
半长轴: 6840.825km
偏心率: 0.000145
轨道倾角: 53.158°
近地点辐角 89.014°
升交点赤经 220.331°
平近点角 271.103°
近地点: 461.696km
远地点: 463.68km
周期: 93.847分钟
每日圈数: 15.344054
Detailed Information
固有亮度:
5
最大亮度:
2.5
卫星平台:
Starlink V1.0
覆盖范围:
全球
运营商:
太空探索技术公司
运营商所在国:
美国
制造商(研发单位):
太空探索技术公司
制造商所在国:
美国
使用方式:
暂无
Satellite Introduction
Starlink 计划是 SpaceX 推出的全球卫星互联网项目,通过发射低轨道卫星,为全球尤其是偏远地区提供高速、低延迟的互联网服务。自 2019 年起,Starlink 已部署数千颗卫星,旨在缩小全球数字鸿沟,推动互联网普及。该项目还为军事、航空等行业提供通信支持,带来广泛经济效益。
2D Orbit Map
3D Orbit Map
Orbit Altitude Analysis Chart
Orbit Inclination Analysis Chart
Orbit Comprehensive Analysis Chart
View Comprehensive Chart
Conjunction Data List
Event ID Objects TCA Miss Dist (km) Collision Risk Probability Collision Risk Index (CRI) Action
CDM_260906-230605-227006-244021
2026-09-06T
23:06:17+0000
0.756 km
远距离
5.917549E-5 中风险 0.7
CDM_260907-004005-227006-244022
2026-09-07T
00:40:05+0000
1.412 km
极远距离
7.12494E-6 低风险 0.52
CDM_260906-213205-227006-244021
2026-09-06T
21:32:29+0000
2.309 km
极远距离
1.808725E-6 低风险 0.4
CDM_260907-115501-927406-244021
OKEAN 1 (19274)
2026-09-07T
11:55:39+0000
2.427 km
极远距离
1.710359E-6 低风险 0.4
CDM_260907-132901-927406-244021
OKEAN 1 (19274)
2026-09-07T
13:29:30+0000
2.999 km
极远距离
1.239781E-6 低风险 0.37
CDM_260907-021305-227006-244021
2026-09-07T
02:13:52+0000
2.934 km
极远距离
1.223366E-6 低风险 0.37